TimeEDT,TemperatureF,Dew PointF,Humidity,Sea Level PressureIn,VisibilityMPH,Wind Direction,Wind SpeedMPH,Gust SpeedMPH,PrecipitationIn,Events,Conditions,WindDirDegrees,DateUTC
12:15 AM,57.2,55.4,94,30.10,7.0,ENE,9.2,17.3,N/A,,Overcast,60,2013-05-06 04:15:00
12:35 AM,57.2,55.4,94,30.09,7.0,ENE,10.4,16.1,N/A,,Overcast,60,2013-05-06 04:35:00
12:55 AM,57.2,55.4,94,30.08,7.0,ENE,10.4,18.4,N/A,,Overcast,60,2013-05-06 04:55:00
1:15 AM,57.2,55.4,94,30.07,7.0,ENE,11.5,16.1,N/A,,Overcast,60,2013-05-06 05:15:00
1:35 AM,57.2,55.4,94,30.08,7.0,ENE,10.4,-,N/A,,Overcast,60,2013-05-06 05:35:00
1:55 AM,57.2,57.2,100,30.07,7.0,ENE,10.4,-,N/A,,Overcast,70,2013-05-06 05:55:00
2:35 AM,57.2,57.2,100,30.06,7.0,ENE,9.2,-,N/A,,Overcast,60,2013-05-06 06:35:00
2:55 AM,57.2,57.2,100,30.05,7.0,ENE,10.4,-,N/A,,Overcast,70,2013-05-06 06:55:00
3:15 AM,57.2,57.2,100,30.05,5.0,ENE,9.2,-,N/A,,Overcast,60,2013-05-06 07:15:00
3:35 AM,57.2,57.2,100,30.05,7.0,ENE,11.5,16.1,N/A,,Overcast,60,2013-05-06 07:35:00
3:55 AM,57.2,57.2,100,30.04,5.0,ENE,10.4,17.3,N/A,,Overcast,60,2013-05-06 07:55:00
4:15 AM,57.2,57.2,100,30.04,5.0,ENE,9.2,-,N/A,,Overcast,70,2013-05-06 08:15:00
4:35 AM,57.2,57.2,100,30.04,5.0,ENE,10.4,-,N/A,,Overcast,60,2013-05-06 08:35:00
4:55 AM,57.2,57.2,100,30.04,4.0,ENE,8.1,-,N/A,,Overcast,70,2013-05-06 08:55:00
5:15 AM,59.0,59.0,100,30.04,3.0,ENE,5.8,-,N/A,,Overcast,60,2013-05-06 09:15:00
5:35 AM,59.0,59.0,100,30.04,2.0,ENE,9.2,-,N/A,,Overcast,70,2013-05-06 09:35:00
5:55 AM,59.0,59.0,100,30.04,2.0,ENE,9.2,-,N/A,,Overcast,70,2013-05-06 09:55:00
6:15 AM,59.0,59.0,100,30.04,2.0,ENE,9.2,-,N/A,,Overcast,70,2013-05-06 10:15:00
6:35 AM,59.0,59.0,100,30.04,1.8,ENE,10.4,-,N/A,,Overcast,70,2013-05-06 10:35:00
6:55 AM,60.8,60.8,100,30.04,2.0,ENE,9.2,-,N/A,,Overcast,70,2013-05-06 10:55:00
7:15 AM,60.8,60.8,100,30.04,1.5,East,10.4,-,N/A,,Overcast,80,2013-05-06 11:15:00
7:35 AM,60.8,60.8,100,30.05,2.0,East,9.2,-,N/A,,Overcast,80,2013-05-06 11:35:00
7:55 AM,60.8,60.8,100,30.04,2.0,East,9.2,-,N/A,,Overcast,80,2013-05-06 11:55:00
8:15 AM,60.8,60.8,100,30.05,2.5,East,9.2,-,N/A,,Overcast,80,2013-05-06 12:15:00
8:35 AM,60.8,60.8,100,30.05,4.0,East,8.1,-,N/A,,Overcast,80,2013-05-06 12:35:00
8:55 AM,62.6,62.6,100,30.05,5.0,East,11.5,-,N/A,,Overcast,80,2013-05-06 12:55:00
9:15 AM,64.4,62.6,94,30.05,7.0,ENE,9.2,-,N/A,,Overcast,70,2013-05-06 13:15:00
9:35 AM,64.4,62.6,94,30.05,10.0,ENE,11.5,-,N/A,,Overcast,70,2013-05-06 13:35:00
9:55 AM,66.2,62.6,88,30.04,10.0,East,11.5,-,N/A,,Overcast,80,2013-05-06 13:55:00
10:15 AM,68.0,62.6,83,30.04,10.0,ENE,10.4,-,N/A,,Mostly Cloudy,70,2013-05-06 14:15:00
10:35 AM,69.8,62.6,78,30.04,10.0,ENE,10.4,-,N/A,,Mostly Cloudy,70,2013-05-06 14:35:00
10:55 AM,71.6,62.6,73,30.04,10.0,East,6.9,-,N/A,,Overcast,100,2013-05-06 14:55:00
11:15 AM,71.6,62.6,73,30.04,10.0,East,8.1,-,N/A,,Overcast,90,2013-05-06 15:15:00
11:35 AM,71.6,62.6,73,30.03,10.0,East,9.2,-,N/A,,Scattered Clouds,90,2013-05-06 15:35:00
11:55 AM,71.6,60.8,69,30.02,10.0,ESE,6.9,-,N/A,,Scattered Clouds,110,2013-05-06 15:55:00
12:15 PM,71.6,62.6,73,30.01,10.0,East,10.4,-,N/A,,Scattered Clouds,80,2013-05-06 16:15:00
12:35 PM,73.4,60.8,65,30.00,10.0,East,8.1,-,N/A,,Scattered Clouds,100,2013-05-06 16:35:00
12:55 PM,73.4,59.0,61,29.99,10.0,East,10.4,19.6,N/A,,Scattered Clouds,100,2013-05-06 16:55:00
1:15 PM,73.4,57.2,57,29.98,10.0,East,11.5,17.3,N/A,,Scattered Clouds,100,2013-05-06 17:15:00
1:35 PM,75.2,55.4,50,29.98,10.0,East,12.7,19.6,N/A,,Scattered Clouds,100,2013-05-06 17:35:00
1:55 PM,75.2,55.4,50,29.98,10.0,SE,11.5,21.9,N/A,,Scattered Clouds,130,2013-05-06 17:55:00
2:15 PM,75.2,55.4,50,29.97,10.0,ESE,13.8,19.6,N/A,,Scattered Clouds,110,2013-05-06 18:15:00
2:35 PM,75.2,57.2,53,29.96,10.0,East,13.8,25.3,N/A,,Clear,100,2013-05-06 18:35:00
2:55 PM,75.2,57.2,53,29.96,10.0,East,11.5,23.0,N/A,,Scattered Clouds,100,2013-05-06 18:55:00
3:15 PM,75.2,57.2,53,29.96,10.0,ESE,13.8,24.2,N/A,,Mostly Cloudy,110,2013-05-06 19:15:00
3:35 PM,73.4,57.2,57,29.95,10.0,ESE,12.7,21.9,N/A,,Mostly Cloudy,110,2013-05-06 19:35:00
3:55 PM,73.4,59.0,61,29.95,10.0,ESE,16.1,23.0,N/A,,Overcast,120,2013-05-06 19:55:00
4:15 PM,71.6,60.8,69,29.95,10.0,ESE,15.0,21.9,N/A,,Overcast,120,2013-05-06 20:15:00
4:35 PM,69.8,60.8,73,29.96,10.0,SE,10.4,24.2,N/A,,Overcast,130,2013-05-06 20:35:00
4:55 PM,68.0,62.6,83,29.96,2.0,ESE,10.4,17.3,N/A,,Overcast,120,2013-05-06 20:55:00
5:15 PM,66.2,64.4,94,29.96,1.2,ESE,4.6,-,N/A,,Overcast,110,2013-05-06 21:15:00
5:35 PM,66.2,64.4,94,29.96,1.5,ESE,4.6,-,N/A,,Overcast,110,2013-05-06 21:35:00
5:55 PM,66.2,66.2,100,29.96,1.8,East,5.8,-,N/A,,Overcast,100,2013-05-06 21:55:00
6:15 PM,66.2,66.2,100,29.96,1.0,ESE,5.8,-,N/A,,Overcast,120,2013-05-06 22:15:00
6:55 PM,64.4,64.4,100,29.94,2.5,East,9.2,-,N/A,,Mostly Cloudy,90,2013-05-06 22:55:00
7:15 PM,64.4,64.4,100,29.94,2.5,East,6.9,-,N/A,,Scattered Clouds,90,2013-05-06 23:15:00
7:35 PM,64.4,64.4,100,29.95,2.5,East,5.8,-,N/A,,Mostly Cloudy,90,2013-05-06 23:35:00
7:55 PM,64.4,64.4,100,29.95,4.0,East,4.6,-,N/A,,Overcast,90,2013-05-06 23:55:00
8:15 PM,64.4,64.4,100,29.95,4.0,East,5.8,-,N/A,,Overcast,80,2013-05-07 00:15:00
8:35 PM,64.4,64.4,100,29.96,5.0,East,5.8,-,N/A,,Mostly Cloudy,90,2013-05-07 00:35:00
8:55 PM,64.4,64.4,100,29.96,10.0,East,8.1,-,N/A,,Overcast,80,2013-05-07 00:55:00
9:15 PM,64.4,62.6,94,29.96,10.0,East,8.1,-,N/A,,Overcast,80,2013-05-07 01:15:00
9:35 PM,64.4,62.6,94,29.97,10.0,East,8.1,-,N/A,,Overcast,90,2013-05-07 01:35:00
9:55 PM,64.4,62.6,94,29.98,1.8,East,6.9,-,N/A,,Overcast,100,2013-05-07 01:55:00
10:15 PM,64.4,64.4,100,29.98,4.0,East,8.1,-,N/A,,Overcast,100,2013-05-07 02:15:00
10:35 PM,64.4,64.4,100,29.97,4.0,East,6.9,-,N/A,,Overcast,100,2013-05-07 02:35:00
10:55 PM,62.6,62.6,100,29.96,4.0,East,8.1,-,N/A,,Mostly Cloudy,90,2013-05-07 02:55:00
11:15 PM,64.4,64.4,100,29.96,4.0,East,4.6,-,N/A,,Mostly Cloudy,100,2013-05-07 03:15:00
11:35 PM,62.6,62.6,100,29.96,4.0,ESE,4.6,-,N/A,,Mostly Cloudy,110,2013-05-07 03:35:00
11:55 PM,62.6,62.6,100,29.95,4.0,East,5.8,-,N/A,,Scattered Clouds,90,2013-05-07 03:55:00